KA6ETS Weather Reports


time (UTC)temp
C
wind
direction
speed
KPH
gust
KPH
rain 1hr
cm
rain 24hr
cm
rain mn
cm
humidity
%
barometer
mb
20260509090214 20 171 11.3 20.9 0.00 0.00 0.00 89 1005.4
20260509085710 21 111 11.3 19.3 0.00 0.00 0.00 88 1005.7
20260509085210 21 124 11.3 19.3 0.00 0.00 0.00 88 1006.1
20260509084710 21 109 11.3 17.7 0.00 0.00 0.00 88 1006.2
20260509084701 21 123 9.7 17.7 0.00 0.00 0.00 87 1006.6
20260509083712 21 132 8.0 17.7 0.00 0.00 0.00 87 1006.9
20260509083210 21 144 6.4 14.5 0.00 0.00 0.00 87 1007.3
20260509082711 21 171 6.4 14.5 0.00 0.00 0.00 87 1007.6
20260509082211 21 156 6.4 14.5 0.00 0.00 0.00 87 1007.6
20260509081710 21 130 6.4 12.9 0.00 0.00 0.00 87 1007.9
20260509081206 21 126 4.8 11.3 0.00 0.00 0.00 86 1008.1
20260509080938 21 150 4.8 11.3 0.00 0.00 0.00 86 1008.4
20260509080206 21 134 4.8 11.3 0.00 0.00 0.00 86 1008.5
20260509075707 21 126 3.2 11.3 0.00 0.00 0.00 86 1008.5
20260509075206 21 150 3.2 8.0 0.00 0.00 0.00 86 1008.7
20260509074706 21 159 3.2 8.0 0.00 0.00 0.00 86 1008.8
20260509074206 21 151 3.2 8.0 0.00 0.00 0.00 86 1008.8
20260509073707 21 173 3.2 8.0 0.00 0.00 0.00 86 1008.9
20260509073206 21 196 1.6 6.4 0.00 0.00 0.00 86 1009.1
20260509072706 21 212 3.2 9.7 0.00 0.00 0.00 86 1009.2
20260509072207 21 213 3.2 9.7 0.00 0.00 0.00 86 1009.4
20260509071929 21 229 3.2 8.0 0.00 0.00 0.00 86 1009.5
20260509071206 21 223 3.2 8.0 0.00 0.00 0.00 86 1009.3
20260509070705 21 198 3.2 8.0 0.00 0.00 0.00 86 1009.1
20260509070206 21 200 4.8 8.0 0.00 0.00 0.00 85 1008.8
20260509065706 21 177 4.8 8.0 0.00 0.00 0.00 85 1008.3
20260509065206 21 160 3.2 8.0 0.00 0.00 0.00 85 1008.2
20260509064705 21 168 3.2 8.0 0.00 0.00 0.00 85 1008.5
20260509064159 21 172 3.2 8.0 0.00 0.00 0.00 84 1008.5
20260509063700 21 198 3.2 9.7 0.00 0.00 0.00 84 1008.7
20260509063424 21 177 4.8 9.7 0.00 0.00 0.00 84 1008.6
20260509062657 21 163 3.2 9.7 0.00 0.00 0.00 84 1008.6
20260509062158 21 167 3.2 8.0 0.00 0.00 0.00 84 1009.0
20260509061656 21 165 1.6 6.4 0.00 0.00 0.00 83 1009.0
20260509061424 21 162 1.6 4.8 0.00 0.00 0.00 83 1009.3
20260509060656 21 156 1.6 8.0 0.00 0.00 0.00 83 1009.3
20260509060414 21 148 1.6 4.8 0.00 0.00 0.00 83 1009.2
20260509060404 21 155 1.6 8.0 0.00 0.00 0.00 83 1009.3
20260509055155 21 298 0.0 0.0 0.00 0.00 0.00 83 1009.7
20260509054652 21 298 0.0 0.0 0.00 0.00 0.00 83 1009.8
20260509054152 21 298 1.6 4.8 0.00 0.00 0.00 83 1009.9
20260509053915 22 298 1.6 4.8 0.00 0.00 0.00 82 1009.9
20260509053152 22 290 1.6 6.4 0.00 0.00 0.00 82 1009.6
20260509052652 22 165 1.6 6.4 0.00 0.00 0.00 82 1009.1
20260509052153 22 134 1.6 11.3 0.00 0.00 0.00 81 1008.9
20260509051651 22 157 1.6 11.3 0.00 0.00 0.00 81 1008.8
20260509051412 22 158 4.8 12.9 0.00 0.00 0.00 81 1008.7
20260509050911 22 182 4.8 12.9 0.00 0.00 0.00 81 1008.4
20260509050134 22 111 1.6 9.7 0.00 0.00 0.00 80 1008.5
20260509045627 22 198 3.2 9.7 0.00 0.00 0.00 80 1008.8
20260509045121 22 169 4.8 14.5 0.00 0.00 0.00 80 1008.6
20260509044835 22 147 4.8 14.5 0.00 0.00 0.00 80 1008.2
20260509044109 22 148 4.8 11.3 0.00 0.00 0.00 80 1008.4
20260509043604 22 148 3.2 11.3 0.00 0.00 0.00 79 1008.6
20260509043058 22 134 3.2 6.4 0.00 0.00 0.00 79 1008.7
20260509042552 22 128 1.6 6.4 0.00 0.00 0.00 79 1008.8
20260509042045 22 130 0.0 0.0 0.00 0.00 0.00 79 1009.1
20260509041539 22 130 0.0 0.0 0.00 0.00 0.00 79 1009.3
20260509041034 22 130 0.0 1.6 0.00 0.00 0.00 79 1009.4
20260509040527 22 129 0.0 1.6 0.00 0.00 0.00 79 1009.3
20260509040022 22 130 0.0 1.6 0.00 0.00 0.00 79 1009.3
20260509035515 22 130 1.6 6.4 0.00 0.00 0.00 79 1009.2
20260509035010 22 130 1.6 6.4 0.00 0.00 0.00 79 1009.1
20260509034503 22 123 1.6 4.8 0.00 0.00 0.00 79 1008.9
20260509033958 22 124 1.6 6.4 0.00 0.00 0.00 79 1008.7
20260509033451 22 125 1.6 6.4 0.00 0.00 0.00 79 1008.6
20260509032945 22 117 1.6 3.2 0.00 0.00 0.00 79 1008.6
20260509032438 22 125 1.6 4.8 0.00 0.00 0.00 79 1008.7
20260509031933 22 124 1.6 4.8 0.00 0.00 0.00 79 1008.7
20260509031427 22 133 1.6 6.4 0.00 0.00 0.00 78 1008.6
20260509031139 22 137 3.2 8.0 0.00 0.00 0.00 78 1008.5
20260509030415 22 149 3.2 8.0 0.00 0.00 0.00 78 1008.3
20260509025911 22 152 1.6 6.4 0.00 0.00 0.00 78 1008.4
20260509025403 22 139 1.6 6.4 0.00 0.00 0.00 77 1008.5
20260509024857 22 128 3.2 6.4 0.00 0.00 0.00 77 1008.2
20260509024611 22 140 3.2 6.4 0.00 0.00 0.00 77 1008.0
20260509023847 22 138 3.2 6.4 0.00 0.00 0.00 77 1008.1
20260509023557 22 124 3.2 6.4 0.00 0.00 0.00 76 1007.9
20260509023055 22 132 3.2 6.4 0.00 0.00 0.00 76 1007.8
20260509022329 22 133 3.2 9.7 0.00 0.00 0.00 76 1007.8
20260509021821 22 126 4.8 9.7 0.00 0.00 0.00 76 1007.7
20260509021315 22 145 4.8 8.0 0.00 0.00 0.00 76 1007.7
20260509021028 22 120 6.4 11.3 0.00 0.00 0.00 76 1007.7
20260509020749 22 121 6.4 11.3 0.00 0.00 0.00 76 1007.7
20260509015757 22 125 4.8 11.3 0.00 0.00 0.00 75 1007.7
20260509015252 22 135 4.8 11.3 0.00 0.00 0.00 76 1007.9
20260509014745 22 136 4.8 11.3 0.00 0.00 0.00 76 1007.8
20260509014239 22 121 4.8 9.7 0.00 0.00 0.00 75 1007.7
20260509013733 22 127 3.2 8.0 0.00 0.00 0.00 75 1007.8
20260509013227 22 129 3.2 8.0 0.00 0.00 0.00 75 1007.8
20260509012721 22 124 3.2 8.0 0.00 0.00 0.00 75 1007.8
20260509012215 22 133 3.2 8.0 0.00 0.00 0.00 75 1007.8
20260509011709 22 139 1.6 8.0 0.00 0.00 0.00 75 1007.7
20260509011203 22 126 3.2 6.4 0.00 0.00 0.00 75 1007.6
20260509010703 22 138 3.2 6.4 0.00 0.00 0.00 75 1007.2
20260509010201 22 138 3.2 8.0 0.00 0.00 0.00 75 1007.2
20260509005924 22 137 4.8 8.0 0.00 0.00 0.00 74 1007.1
20260509005201 22 118 4.8 11.3 0.00 0.00 0.00 74 1007.2
20260509004702 22 141 4.8 14.5 0.00 0.00 0.00 74 1007.1
20260509004201 23 138 6.4 14.5 0.00 0.00 0.00 74 1007.1
20260509003701 23 125 4.8 11.3 0.00 0.00 0.00 74 1007.1
20260509003203 23 136 4.8 12.9 0.00 0.00 0.00 74 1007.2
20260509002703 23 121 6.4 12.9 0.00 0.00 0.00 73 1007.3
20260509002201 23 130 4.8 11.3 0.00 0.00 0.00 73 1007.3
20260509001925 23 135 4.8 12.9 0.00 0.00 0.00 73 1007.3
20260509001200 23 132 6.4 12.9 0.00 0.00 0.00 73 1007.3
20260509001144 23 134 6.4 12.9 0.00 0.00 0.00 73 1007.4
20260509000157 23 121 4.8 12.9 0.00 0.00 0.00 72 1007.4
20260508235657 23 128 4.8 12.9 0.00 0.00 0.00 72 1007.6
20260508235155 23 134 6.4 14.5 0.00 0.00 0.00 71 1007.6
20260508235146 23 140 6.4 14.5 0.00 0.00 0.00 71 1007.6
20260508234154 23 119 6.4 11.3 0.00 0.00 0.00 71 1007.6
20260508233655 23 136 4.8 11.3 0.00 0.00 0.00 70 1007.7
20260508233425 23 127 4.8 12.9 0.00 0.00 0.00 70 1007.7
20260508232653 23 133 4.8 12.9 0.00 0.00 0.00 69 1007.6
20260508232153 23 120 4.8 11.3 0.00 0.00 0.00 69 1007.6
20260508231653 23 121 4.8 12.9 0.00 0.00 0.00 68 1007.6
20260508231416 23 116 3.2 12.9 0.00 0.00 0.00 68 1007.6
20260508230654 24 131 3.2 9.7 0.00 0.00 0.00 67 1007.6
20260508230149 24 140 4.8 14.5 0.00 0.00 0.00 68 1007.7
20260508225649 24 126 6.4 14.5 0.00 0.00 0.00 67 1007.7
20260508225149 24 140 4.8 12.9 0.00 0.00 0.00 68 1007.7
20260508224651 23 146 3.2 9.7 0.00 0.00 0.00 68 1007.7
20260508224149 23 165 4.8 12.9 0.00 0.00 0.00 68 1007.7
20260508223649 23 145 6.4 14.5 0.00 0.00 0.00 68 1007.7
20260508223149 23 138 8.0 14.5 0.00 0.00 0.00 67 1007.8
20260508222649 23 142 8.0 16.1 0.00 0.00 0.00 66 1007.8
20260508222149 24 161 9.7 19.3 0.00 0.00 0.00 67 1007.8
20260508221647 24 125 9.7 19.3 0.00 0.00 0.00 66 1007.8
20260508221146 24 136 9.7 19.3 0.00 0.00 0.00 66 1007.9
20260508220645 24 164 8.0 17.7 0.00 0.00 0.00 68 1007.9
20260508220342 23 152 9.7 16.1 0.00 0.00 0.00 68 1007.7
20260508220333 23 136 9.7 16.1 0.00 0.00 0.00 69 1007.7
20260508215145 23 155 9.7 17.7 0.00 0.00 0.00 67 1007.7
20260508214645 23 187 8.0 17.7 0.00 0.00 0.00 68 1007.8
20260508214144 23 141 6.4 16.1 0.00 0.00 0.00 69 1007.6
20260508213905 23 159 3.2 12.9 0.00 0.00 0.00 72 1007.6
20260508213145 22 136 0.0 3.2 0.00 0.00 0.00 72 1007.6
20260508212645 22 138 1.6 11.3 0.00 0.00 0.00 73 1007.8
20260508212145 22 139 4.8 19.3 0.00 0.00 0.00 73 1007.6
20260508211910 22 297 8.0 24.1 0.00 0.00 0.00 74 1007.8
20260508211144 22 23 9.7 24.1 0.00 0.00 0.00 73 1007.4
20260508210903 22 114 8.0 17.7 0.00 0.00 0.00 71 1007.2
20260508210144 23 141 6.4 16.1 0.00 0.00 0.00 71 1009.1
20260508205643 23 188 4.8 12.9 0.00 0.00 0.00 71 1009.1
20260508205144 23 121 4.8 12.9 0.00 0.00 0.00 69 1008.5
20260508204642 23 181 6.4 12.9 0.00 0.00 0.00 69 1009.4
20260508204135 23 146 6.4 14.5 0.00 0.00 0.00 68 1009.5
20260508203628 23 172 6.4 14.5 0.00 0.00 0.00 68 1009.5
20260508203346 23 189 6.4 12.9 0.00 0.00 0.00 68 1009.4
20260508202625 23 186 4.8 12.9 0.00 0.00 0.00 67 1009.5
20260508202349 23 190 6.4 14.5 0.00 0.00 0.00 67 1009.4
20260508201625 24 198 6.4 14.5 0.00 0.00 0.00 67 1009.4
20260508201125 24 176 8.0 16.1 0.00 0.00 0.00 66 1009.4
20260508200847 24 204 6.4 16.1 0.00 0.00 0.00 65 1009.4
20260508200122 24 163 6.4 14.5 0.00 0.00 0.00 64 1009.4
20260508195625 24 182 6.4 14.5 0.00 0.00 0.00 63 1009.3
20260508195123 25 155 4.8 14.5 0.00 0.00 0.00 64 1009.2
20260508194621 24 147 6.4 16.1 0.00 0.00 0.00 64 1009.3
20260508194343 24 196 8.0 19.3 0.00 0.00 0.00 64 1009.4
20260508193621 25 130 8.0 19.3 0.00 0.00 0.00 63 1009.5
20260508193119 25 142 8.0 16.1 0.00 0.00 0.00 62 1009.4
20260508192619 25 188 8.0 14.5 0.00 0.00 0.00 64 1009.5
20260508192119 24 186 8.0 16.1 0.00 0.00 0.00 63 1009.5
20260508191619 24 172 9.7 17.7 0.00 0.00 0.00 63 1009.7
20260508191117 24 131 9.7 19.3 0.00 0.00 0.00 63 1009.7
20260508190616 24 136 9.7 19.3 0.00 0.00 0.00 62 1009.8
20260508190341 25 160 11.3 20.9 0.00 0.00 0.00 62 1009.8
20260508185617 25 158 9.7 20.9 0.00 0.00 0.00 62 1009.9
20260508185117 25 137 8.0 16.1 0.00 0.00 0.00 62 1009.9
20260508184617 25 146 9.7 19.3 0.00 0.00 0.00 60 1010.0
20260508184116 26 141 9.7 19.3 0.00 0.00 0.00 59 1009.9
20260508183617 26 177 8.0 17.7 0.00 0.00 0.00 60 1010.0
20260508183116 25 134 6.4 17.7 0.00 0.00 0.00 61 1010.0
20260508182617 25 106 4.8 12.9 0.00 0.00 0.00 62 1010.0
20260508182336 25 111 6.4 14.5 0.00 0.00 0.00 62 1010.0
20260508181618 25 140 8.0 14.5 0.00 0.00 0.00 61 1010.2
20260508181118 25 167 6.4 12.9 0.00 0.00 0.00 63 1010.4
20260508180838 25 130 4.8 12.9 0.00 0.00 0.00 62 1010.5
20260508180338 25 128 3.2 11.3 0.00 0.00 0.00 60 1010.6
20260508175616 25 125 3.2 12.9 0.00 0.00 0.00 62 1010.7
20260508175116 25 175 4.8 14.5 0.00 0.00 0.00 62 1010.8
20260508174611 25 140 4.8 16.1 0.00 0.00 0.00 63 1010.8
20260508174106 24 126 6.4 16.1 0.00 0.00 0.00 62 1010.9
20260508173559 24 132 4.8 16.1 0.00 0.00 0.00 63 1010.9
20260508173053 24 138 4.8 16.1 0.00 0.00 0.00 61 1010.9
20260508172547 24 116 3.2 12.9 0.00 0.00 0.00 63 1011.1
20260508172040 23 113 3.2 14.5 0.00 0.00 0.00 64 1011.1
20260508171756 23 137 3.2 14.5 0.00 0.00 0.00 64 1011.1
20260508171029 23 119 3.2 11.3 0.00 0.00 0.00 64 1011.1
20260508170522 23 141 4.8 11.3 0.00 0.00 0.00 65 1011.3
20260508170016 22 197 4.8 16.1 0.00 0.00 0.00 64 1011.4
20260508165512 22 112 6.4 16.1 0.00 0.00 0.00 63 1011.9
20260508165004 23 130 6.4 14.5 0.00 0.00 0.00 62 1012.0
20260508164458 23 129 8.0 16.1 0.00 0.00 0.00 62 1012.1
20260508163952 23 130 8.0 16.1 0.00 0.00 0.00 61 1012.2
20260508163447 23 163 8.0 16.1 0.00 0.00 0.00 62 1012.2
20260508162940 23 152 6.4 14.5 0.00 0.00 0.00 64 1012.2
20260508162434 22 184 8.0 14.5 0.00 0.00 0.00 65 1012.3
20260508161928 22 159 8.0 17.7 0.00 0.00 0.00 65 1012.3
20260508161423 22 127 8.0 17.7 0.00 0.00 0.00 64 1012.2
20260508160916 22 122 8.0 16.1 0.00 0.00 0.00 65 1012.3
20260508160410 22 135 8.0 17.7 0.00 0.00 0.00 65 1012.3
20260508155904 22 178 8.0 17.7 0.00 0.00 0.00 64 1012.5
20260508155400 21 147 4.8 14.5 0.00 0.00 0.00 64 1012.5
20260508154853 21 147 4.8 12.9 0.00 0.00 0.00 66 1012.7
20260508154346 21 125 4.8 11.3 0.00 0.00 0.00 68 1012.8
20260508153840 20 165 4.8 12.9 0.00 0.00 0.00 68 1012.8
20260508153334 20 152 4.8 12.9 0.00 0.00 0.00 68 1012.9
20260508152830 20 130 4.8 11.3 0.00 0.00 0.00 67 1013.0
20260508152321 20 120 4.8 9.7 0.00 0.00 0.00 68 1013.1
20260508151816 20 163 6.4 16.1 0.00 0.00 0.00 67 1013.0
20260508151310 20 150 8.0 16.1 0.00 0.00 0.00 68 1013.1
20260508150806 20 157 8.0 16.1 0.00 0.00 0.00 67 1013.2
20260508150524 20 123 8.0 14.5 0.00 0.00 0.00 67 1013.1
20260508145752 20 145 8.0 17.7 0.00 0.00 0.00 66 1013.0
20260508145504 21 141 8.0 17.7 0.00 0.00 0.00 66 1013.0
20260508144740 20 165 8.0 16.1 0.00 0.00 0.00 67 1013.0
20260508144234 20 126 6.4 14.5 0.00 0.00 0.00 67 1012.9
20260508143729 20 141 8.0 16.1 0.00 0.00 0.00 67 1012.9
20260508143222 20 148 8.0 20.9 0.00 0.00 0.00 67 1013.0
20260508142716 20 136 6.4 20.9 0.00 0.00 0.00 67 1013.0
20260508142210 20 112 6.4 14.5 0.00 0.00 0.00 69 1013.0
20260508141704 20 157 6.4 12.9 0.00 0.00 0.00 69 1013.2
20260508141157 19 148 4.8 12.9 0.00 0.00 0.00 69 1013.3
20260508140652 19 116 4.8 14.5 0.00 0.00 0.00 69 1013.3
20260508140146 19 121 6.4 14.5 0.00 0.00 0.00 71 1013.3
20260508135640 18 142 6.4 14.5 0.00 0.00 0.00 72 1013.4
20260508135135 18 130 6.4 14.5 0.00 0.00 0.00 71 1013.4
20260508134629 18 130 6.4 14.5 0.00 0.00 0.00 73 1013.1
20260508134122 18 132 4.8 12.9 0.00 0.00 0.00 74 1013.2
20260508133616 18 120 1.6 9.7 0.00 0.00 0.00 76 1013.3
20260508133110 17 90 0.0 3.2 0.00 0.00 0.00 78 1013.2
20260508132605 17 327 0.0 1.6 0.00 0.00 0.00 79 1013.2
20260508132058 17 327 0.0 1.6 0.00 0.00 0.00 80 1013.4
20260508131818 16 327 0.0 1.6 0.00 0.00 0.00 81 1013.4
20260508131046 16 326 0.0 1.6 0.00 0.00 0.00 82 1013.7
20260508130541 16 326 0.0 3.2 0.00 0.00 0.00 84 1013.7
20260508130257 16 326 0.0 3.2 0.00 0.00 0.00 84 1013.7
20260508125749 16 252 0.0 3.2 0.00 0.00 0.00 85 1013.7
20260508125256 16 252 0.0 3.2 0.00 0.00 0.00 85 1013.6
20260508124519 16 249 0.0 3.2 0.00 0.00 0.00 85 1013.6
20260508124012 16 248 0.0 3.2 0.00 0.00 0.00 85 1013.4
20260508123506 16 248 0.0 0.0 0.00 0.00 0.00 85 1013.4
20260508123001 16 248 0.0 0.0 0.00 0.00 0.00 84 1013.2
20260508122458 16 248 0.0 0.0 0.00 0.00 0.00 84 1013.2
20260508121957 16 248 0.0 0.0 0.00 0.00 0.00 84 1013.3
20260508121715 16 248 0.0 0.0 0.00 0.00 0.00 84 1013.6
20260508120953 16 248 0.0 0.0 0.00 0.00 0.00 84 1013.5
20260508120450 16 248 0.0 0.0 0.00 0.00 0.00 84 1013.4
20260508115948 16 248 0.0 0.0 0.00 0.00 0.00 84 1013.4
20260508115447 16 248 0.0 1.6 0.00 0.00 0.00 84 1013.5
20260508114944 16 248 0.0 1.6 0.00 0.00 0.00 83 1013.5
20260508114442 16 248 0.0 1.6 0.00 0.00 0.00 83 1013.6
20260508113942 16 248 0.0 1.6 0.00 0.00 0.00 83 1013.4
20260508113703 16 248 0.0 0.0 0.00 0.00 0.00 83 1013.6
20260508112938 16 248 0.0 0.0 0.00 0.00 0.00 83 1013.9
20260508112438 16 248 0.0 1.6 0.00 0.00 0.00 83 1013.9
20260508111936 16 248 1.6 4.8 0.00 0.00 0.00 83 1014.1
20260508111658 16 248 1.6 4.8 0.00 0.00 0.00 83 1014.1
20260508110935 16 246 0.0 4.8 0.00 0.00 0.00 83 1014.1
20260508110432 16 162 0.0 1.6 0.00 0.00 0.00 83 1013.9
20260508105930 16 161 0.0 0.0 0.00 0.00 0.00 83 1013.8
20260508105428 16 161 0.0 3.2 0.00 0.00 0.00 83 1013.4
20260508104925 16 161 0.0 4.8 0.00 0.00 0.00 83 1013.2
20260508104424 16 148 3.2 8.0 0.00 0.00 0.00 83 1013.1
20260508103922 16 143 3.2 8.0 0.00 0.00 0.00 83 1012.8
20260508103422 16 140 3.2 9.7 0.00 0.00 0.00 83 1012.5
20260508102923 16 130 4.8 9.7 0.00 0.00 0.00 83 1012.1
20260508102423 16 132 4.8 6.4 0.00 0.00 0.00 83 1012.2
20260508101922 16 133 1.6 6.4 0.00 0.00 0.00 83 1012.3
20260508101424 16 126 1.6 4.8 0.00 0.00 0.00 82 1012.6
20260508101406 16 126 1.6 4.8 0.00 0.00 0.00 82 1012.6
20260508100639 16 126 1.6 4.8 0.00 0.00 0.00 82 1012.7
20260508095923 16 127 1.6 4.8 0.00 0.00 0.00 82 1012.7
20260508095418 16 127 0.0 3.2 0.00 0.00 0.00 82 1012.5
20260508094919 16 126 0.0 1.6 0.00 0.00 0.00 82 1012.9
20260508094418 16 126 0.0 3.2 0.00 0.00 0.00 82 1012.9
20260508093918 16 126 1.6 4.8 0.00 0.00 0.00 82 1012.8
20260508093420 16 127 1.6 4.8 0.00 0.00 0.00 82 1012.5
20260508093414 16 125 1.6 4.8 0.00 0.00 0.00 82 1012.6
20260508092418 16 123 0.0 3.2 0.00 0.00 0.00 82 1012.8
20260508091918 16 123 0.0 1.6 0.00 0.00 0.00 81 1012.8
20260508091418 16 123 1.6 9.7 0.00 0.00 0.00 81 1012.8
20260508091134 16 123 3.2 9.7 0.00 0.00 0.00 81 1012.7